Regional Weather Roundup
Issued by NWS Boston, MA

Current Version | Previous Version | Text Only | Print | Product List | Glossary Off
Versions: 1 2 3 4 5 6 7 8 9 10 11 12 13 14 15 16 17 18 19 20 21 22 23 24 25 26 27 28 29 30 31 32 33 34 35 36 37 38 39 40 41 42 43 44 45 46 47 48 49 50
564 ASUS41 KBOX 210210 RWRBOX REGIONAL WEATHER ROUNDUP NATIONAL WEATHER SERVICE BOSTON/NORTON MA 1000 PM EDT MON AUG 20 2018 NOTE: "FAIR" INDICATES FEW OR NO CLOUDS BELOW 12,000 FEET WITH NO SIGNIFICANT WEATHER AND/OR OBSTRUCTIONS TO VISIBILITY. MAZALL-210300- EASTERN MASSACHUSETTS CITY SKY/WX TMP DP RH WIND PRES REMARKS BOSTON FAIR 67 62 84 NE8 30.18S BEVERLY FAIR 62 60 93 N3 30.18S LAWRENCE FAIR 65 59 81 NE3 30.21S BEDFORD FAIR 62 58 86 CALM 30.18R BLUE HILL N/A 61 61 100 NE7 30.17S NORWOOD FAIR 64 62 93 CALM 30.17R MARSHFIELD FAIR 66 64 94 VRB5 30.16F PLYMOUTH CLOUDY 67 63 87 NE8 30.17R TAUNTON FAIR 63 61 93 CALM 30.16S NEW BEDFORD CLOUDY 65 64 97 N3 30.15R $$ MAZALL-210300- CAPE COD AND THE ISLANDS CITY SKY/WX TMP DP RH WIND PRES REMARKS FALMOUTH CLOUDY 66 64 94 NE8 30.16R HYANNIS CLOUDY 68 64 87 NE8 30.13S CHATHAM CLOUDY 67 63 87 NE9 30.15S PROVINCETOWN CLOUDY 65 62 90 NE6 30.17S NANTUCKET CLOUDY 66 65 96 NE12 30.12S MARTHAS VNYRD CLOUDY 68 64 87 NE10G20 30.14R $$ MAZALL-210300- CENTRAL AND WESTERN MASSACHUSETTS CITY SKY/WX TMP DP RH WIND PRES REMARKS WORCESTER FAIR 62 58 86 NE5 30.20S FITCHBURG FAIR 60 58 92 N3 30.20S ORANGE FAIR 63 60 90 CALM 30.20R SPRINGFIELD PTCLDY 65 60 83 CALM 30.17R WESTFIELD FAIR 66 62 87 CALM 30.17R NORTH ADAMS FAIR 64 60 87 E5 30.17R PITTSFIELD FAIR 64 58 80 CALM 30.18R $$ RIZALL-210300- RHODE ISLAND CITY SKY/WX TMP DP RH WIND PRES REMARKS PROVIDENCE FAIR 65 60 84 NE8 30.18R NEWPORT MOCLDY 66 62 87 NE8 30.16R BLOCK ISLAND MOCLDY 67 63 87 NE9 30.16S SMITHFIELD FAIR 63 60 90 NE5 30.19R WESTERLY FAIR 66 63 90 CALM 30.17R $$ CTZALL-210300- CONNECTICUT CITY SKY/WX TMP DP RH WIND PRES REMARKS BRADLEY INTL FAIR 68 59 73 E5 30.17R HARTFORD FAIR 68 59 73 E3 30.16R BRIDGEPORT CLOUDY 73 64 73 SE6 30.15R DANBURY CLOUDY 68 66 93 CALM 30.17R GROTON FAIR 67 60 78 NE5 30.15S NEW HAVEN MOCLDY 72 66 81 E3 30.15S CHESTER FAIR 68 61 77 NE5 30.17S MERIDEN FAIR 65 62 90 CALM 30.16R WILLIMANTIC FAIR 64 61 90 CALM 30.18R OXFORD CLOUDY 68 65 90 CALM 30.18R $$ MEZ002-015-021-024-NHZ003-005-008-011-012-014-VTZ005-008-210300- NORTHERN NEW ENGLAND CITY SKY/WX TMP DP RH WIND PRES REMARKS PORTLAND ME FAIR 63 60 90 CALM 30.20S BANGOR ME MOCLDY 65 58 78 CALM 30.20R CONCORD NH FAIR 63 58 83 CALM 30.20R MANCHESTER NH FAIR 65 59 81 CALM 30.18R NASHUA NH FAIR 62 60 93 CALM 30.20R PORTSMOUTH NH CLEAR 62 59 88 CALM 30.18R JAFFREY NH FAIR 59 58 96 CALM 30.22R KEENE NH FAIR N/A N/A N/A CALM 30.19S BURLINGTON VT FAIR 70 57 63 SE5 30.13R MT. WASHINGTON FOG 46 46 100 N10 N/A VSB 1/16 $$ NYZ052-076-210300- EASTERN NEW YORK CITY SKY/WX TMP DP RH WIND PRES REMARKS ALBANY FAIR 71 61 70 SE7 30.15R NEW YORK CITY MOCLDY 73 64 73 SE6 30.14R $$ ANZALL-210300- MARINE OBSERVATIONS STATION/POSITION TIME TEMP WIND PRES VSBY WAVE AIR SEA DIR/SP/G HT/PER (UTC) (F) (DEG/KT/KT) (MB) (MI) (FT/S) BOSTON BUOY 0150 66 68 30/ 10/ 10 1021.0R 4/ 8 BUZZARDS BAY 0100 68 30/ 17/ 18 1020.8R NANTUCKET SOUND 0150 69 75 50/ 17/ 19 1020.1S 2/ 3 MASS BAY-STELLWA 0104 67 68 40/ 8/ 10 1020.1R 1 7/8 4/ 8 ISLE OF SHOALS 0100 65 70/ 6/ 6 1021.7R S OF BLOCK IS 0143 70 N/A 3/ 4 $$ ......................KEY......................... SKY/WX - SKY CONDITION/PRESENT WEATHER TMP - TEMPERATURE IN FAHRENHEIT DWPT - DEWPOINT IN FAHRENHEIT RH - RELATIVE HUMIDITY IN PERCENT WIND - DIRECTION AND SPEED IN MPH PRES - MEAN SEA LEVEL PRESSURE IN INCHES OF HG WCI - WIND CHILL INDEX VSB - VISIBILITY IN MILES HX - HEAT INDEX TC - TEMPERATURE IN CELSIUS VRB - VARIABLE WIND DIRECTION N/A - NOT AVAILABLE

USA.gov is the U.S. government's official web portal to all federal, state and local government web resources and services.